Regional Weather Roundup
Issued by NWS Newport/Morehead, NC

Current Version | Previous Version | Graphics & Text | Print | Product List | Glossary Off
Versions: 1 2 3 4 5 6 7 8 9 10 11 12 13 14 15 16 17 18 19 20 21 22 23 24 25 26 27 28 29 30 31 32 33 34 35 36 37 38 39 40 41 42 43 44 45 46 47 48 49 50

000
ASUS42 KMHX 202214
RWRMHX
WEATHER ROUNDUP FOR EASTERN NORTH CAROLINA
NATIONAL WEATHER SERVICE NEWPORT/MOREHEAD CITY NC
600 PM EDT SUN AUG 20 2017

NOTE: "FAIR" INDICATES FEW OR NO CLOUDS BELOW 12,000 FEET
WITH NO SIGNIFICANT WEATHER AND/OR OBSTRUCTIONS TO VISIBILITY

NCZ015>017-031-032-045>047-102-103-202300-
NORTH COAST

CITY           SKY/WX    TMP DP  RH WIND       PRES   REMARKS
EDENTON        SUNNY     87  75  66 CALM      30.10S
ELIZABETH CITY SUNNY     86  73  65 E8        30.10S
KITTY HAWK     PTCLDY    81  75  81 CALM      30.10R
MANTEO         MOSUNNY   82  76  82 E9        30.11S

$$

NCZ045>047-081-094-103-104-202300-
CENTRAL COAST

CITY           SKY/WX    TMP DP  RH WIND       PRES   REMARKS
FRISCO         SUNNY     84  78  82 VRB3      30.10R

$$

NCZ095-097-098-100-101-202300-
SOUTHERN COAST

CITY           SKY/WX    TMP DP  RH WIND       PRES   REMARKS
BEAUFORT       MOSUNNY   83  77  82 SE6       30.10R
CEDAR ISLAND   NOT AVBL
JACKSONVILLE   MOSUNNY   85  77  77 SE9       30.09R
PINEY ISLAND     N/A    N/A N/A N/A SE6       30.10R
WILMINGTON     CLOUDY    84  76  76 E9        30.09R


$$

NCZ011>013-027>030-043-044-078>080-089-090>093-098-202300-
COASTAL PLAIN

CITY           SKY/WX    TMP DP  RH WIND       PRES   REMARKS
AHOSKIE          N/A     88  71  58 SE3       30.09R
CLINTON        CLOUDY    91  71  51 E3        30.08S
ELIZABETHTOWN  NOT AVBL
GOLDSBORO      MOSUNNY   92  72  51 E7        30.07S
GREENVILLE     SUNNY     90  70  51 E8        30.10R
HAVELOCK       PTSUNNY   87  74  64 S6        30.10R
KENANSVILLE    CLOUDY    88  73  62 SE3       30.08S
KINSTON        NOT AVBL
NEW BERN       CLOUDY    87  72  60 SE6       30.10R
RICHLANDS      PTSUNNY   86  77  74 SE7       30.09R
ROCKY MOUNT    MOSUNNY   90  72  55 VRB5      30.09R
WASHINGTON     SUNNY     89  71  54 SE6       30.09R
WHITEVILLE     PTSUNNY   90  74  60 E13       30.06S

$$

AMZ130-135-150-152-154-156-158-170-250-252-270-ANZ085-086-088-633-658-670-202300-
MARINE OBSERVATIONS

STATION/POSITION TIME  TEMP    WIND        PRES    WAVE   SWELL
                       AIR SEA DIR/SP/G            HT/PER HT/PER
                 (UTC) (F)     (DEG/KT/KT) (MB)    (FT/S) (FT/S)
CHESAPEAKE LIGHT NOT AVBL
64 E VA BEACH    2150   79 81   60/  8/  8 1020.0    2/ 8   2/ 8
DUCK             2148   82 80   80/  9/ 10 1019.2
2 E DUCK         2200      81                N/A     2/ 9
OREGON INLET     2148           70/  9/ 11 1019.5
13E OREGON INLT  2148      81                N/A     2/ 7   2/ 7
HATTERAS CG      2148   81 81  110/  5/  8 1019.5
DIAMOND BUOY     2150   82 85   50/  4/  6 1019.3    2/ 8   2/ 8
CAPE LOOKOUT     2200   82     100/  5/  6 1018.8
BEAUFORT LAB     2148   83 82  130/  6/  9 1018.5
30 SE NEW RVR IN 2108   84 85  100/  6/  8 1018.9
30 SE NEW RVR IN 2143      84                N/A     3/ 8
27 SE WRIGHTSVLE 2108   84 85  110/ 10/ 12 1018.5
5 SE WRIGHTSVLE  2108   83 85  110/  8/ 12 1018.5
225 S CAPE HAT   2150   82 85  140/ 10/ 12 1019.4    3/ 8   3/ 8
41 SE CHARLESTON 2200   86     140/  6/  8 1018.0

$$




USA.gov is the U.S. government's official web portal to all federal, state and local government web resources and services.